Regional Weather Roundup
Issued by NWS Upton, NY

Current Version | Previous Version | Graphics & Text | Print | Product List | Glossary Off
Versions: 1 2 3 4 5 6 7 8 9 10 11 12 13 14 15 16 17 18 19 20 21 22 23 24 25 26 27

000
ASUS41 KOKX 220607
RWROKX

REGIONAL WEATHER ROUNDUP
NATIONAL WEATHER SERVICE NEW YORK NY
200 AM EDT WED MAR 22 2017

NOTE: "FAIR" INDICATES FEW OR NO CLOUDS BELOW 12,000 FEET WITH NO
SIGNIFICANT WEATHER AND/OR OBSTRUCTIONS TO VISIBILITY.

NYZ071-072-176-178-NJZ106-104-220700-
NEW YORK CITY METRO AREA

CITY           SKY/WX    TMP DP  RH WIND       PRES   REMARKS
Central Park   CLOUDY    48  18  30 W3        29.89S
Wall St Helipt CLOUDY    50  19  29 SW3       29.88S
LaGuardia APRT CLOUDY    50  19  29 CALM      29.86S
Kennedy INTL   CLOUDY    49  16  26 N5        29.87S
Breezy Point     N/A     46 N/A N/A N3          N/A
Newark/Liberty CLOUDY    49  18  29 NW3       29.87S
Teterboro      PTCLDY    42  28  57 CALM      29.86S
$$

NYZ177-179-078>081-220700-
LONG ISLAND NEW YORK

CITY           SKY/WX    TMP DP  RH WIND       PRES   REMARKS
Jones Beach      N/A     48 N/A N/A N2          N/A
Matinecock PT  NOT AVBL
Farmingdale    CLOUDY    47  24  40 CALM      29.86S
MacArthur/ISP  CLOUDY    44  29  55 CALM      29.85S
Shirley        CLOUDY    41  33  73 CALM      29.86S
Westhampton    CLOUDY    36  30  79 CALM      29.87S
East Hampton   CLOUDY    40  30  66 CALM      29.84S
Montauk          N/A     42  31  64 CALM      29.85S
$$

NYZ052-065-067-220700-
HUDSON VALLEY

CITY           SKY/WX    TMP DP  RH WIND       PRES   REMARKS
White Plains   PTCLDY    35  25  66 NW7       29.84F WCI  29
Newburgh       CLEAR     37  19  48 CALM      29.86S
Montgomery     CLEAR     42  17  36 W7        29.86R
Poughkeepsie   MOCLDY    30  24  78 CALM      29.85R
Albany         PTCLDY    38  20  48 W14G22    29.85R WCI  30
$$

NJZ001-105-106-008-010-013-015-019>022-104-220700-
NEW JERSEY

CITY           SKY/WX    TMP DP  RH WIND       PRES   REMARKS
Newark/Liberty CLOUDY    49  18  29 NW3       29.87S
Teterboro      PTCLDY    42  28  57 CALM      29.86S
Caldwell       CLEAR     37  27  67 CALM      29.87F
Somerville     PTCLDY    33  31  92 NW3       29.87S
Linden           N/A     47  22  37 CALM      29.88S
Sussex         CLEAR     29  25  85 CALM      29.88R
Andover          N/A     32  29  88 S3        29.88R
Trenton        CLOUDY    47  34  60 NW3       29.88R
Millville      CLOUDY    45  40  82 W5        29.89S
Atlantic City  CLOUDY    47  38  71 W6        29.88S
Wrightstown    CLOUDY    49  37  61 NW6       29.86R
Toms River     CLOUDY    42  36  79 W3        29.88R
Belmar         MOCLDY   N/A N/A N/A NW5       29.88R
$$

PAZ047>061-062-071-220700-
EASTERN PENNSYLVANIA

CITY           SKY/WX    TMP DP  RH WIND       PRES   REMARKS
Philadelphia   CLOUDY    52  34  50 NW10      29.90R
Allentown      CLEAR     41  32  70 SW3       29.89S
Scranton       PTCLDY    39  24  55 NW8       29.90R WCI  33
$$

CTZ002-004>006-009-010-012-RIZ004-006-007-MAZ004-011-015-220700-
SOUTHERN NEW ENGLAND
 IN CT

CITY           SKY/WX    TMP DP  RH WIND       PRES   REMARKS
Bradley INTL   PTCLDY    34  26  72 W7        29.82S WCI  28
Hartford       CLEAR     32  28  85 CALM      29.83S
Danbury        MOCLDY    32  26  78 CALM      29.86R
Wtrbury/Oxford CLOUDY    37  25  60 CALM      29.84S
Bridgeport     MOCLDY    40  30  67 W5        29.85S
Meriden        CLOUDY    33  28  81 CALM      29.84S
New Haven      CLOUDY    40  31  70 SW3       29.85R
Chester        MOCLDY    41  18  38 W3        29.83R
Groton         CLOUDY    40  33  76 S3        29.83S
Wilimantic     CLOUDY    30  25  81 CALM      29.83S

 IN RI

CITY           SKY/WX    TMP DP  RH WIND       PRES   REMARKS
Providence     CLOUDY    40  22  48 W5        29.82S
Block Island   MOCLDY    43  26  51 NW6       29.84S
Westerly       CLOUDY    40  26  57 CALM      29.84R
 IN MA

CITY           SKY/WX    TMP DP  RH WIND       PRES   REMARKS
Boston         CLEAR     42  26  53 W7        29.79F
Worcester      CLEAR     35  21  56 SW8       29.77F WCI  29
Westfield      CLEAR     27  25  92 CALM      29.81S
Provincetown   CLOUDY    40  30  67 W10       29.80S WCI  33
Nantucket      PTCLDY    44  26  49 NW14      29.81S
$$

ANZ330-335-338-340-345-350-353-355-220700-
COASTAL MARINE OBSERVATIONS


STATION/POSITION TIME  SKY/WX   TEMP    WIND        PRES    VSBY  WAVE
                                AIR SEA DIR/SP/G                  HT/PER
                 (UTC)          (F)     (DEG/KT/KT) (MB)    (MI)  (FT/S)
NY HARB ENTRANCE 0450            47 43  260/  4/  6 1011.2          2/10
20 S FIRE ISLAND 0550            43 41  340/  6/  8 1010.7          3/ 9
GREAT SOUTH BAY  NOT AVBL
23 SSW MONTAUK P 0450            44 42              1011.2          3/11
15 E BARNEGAT LI 0530               43                N/A           3/ 9
HUDSON CANYON    0450            48 46  250/ 10/ 12 1011.7          3/11
KINGS POINT      0536                                 N/A
EXECUTION ROCKS  NOT AVBL
CENTRAL LI SOUND 0515            42     210/  4/  6   N/A           0
EASTERN LI SOUND NOT AVBL
ROBBINS REEF     0536                   320/  3/  4   N/A
$$


>>>>>>>>>>>>>>>>>>>>>>>>>>>> KEY <<<<<<<<<<<<<<<<<<<<<<<<<<<
>                                                          <
>     SKY/WX - Sky Condition/Present Weather               <
>     TMP    - Temperature in Fahrenheit                   <
>     DP     - Dew Point in Fahrenheit                     <
>     RH     - Relative Humidity in Percent                <
>     WIND   - Direction (from) and Speed in MPH           <
>     PRES   - Mean Sea Level Pressure (inches of Hg)      <
>     WCI    - Wind Chill Index                            <
>     VSB    - VISIBILITY IN MILES                         <
>     HX     - HEAT INDEX                                  <
>     TC     - TEMPERATURE IN CELSIUS                      <
>     VRB    - VARIABLE WIND DIRECTION                     <
>                                                          <
>>>>>>>>>>>>>>>>>>>>>>>>>>>> KEY <<<<<<<<<<<<<<<<<<<<<<<<<<<




USA.gov is the U.S. government's official web portal to all federal, state and local government web resources and services.